Preview of NWS' New Version of Forecast
This preview is not operational and should not be used for support decisions.

Regional Weather Roundup (RWR)

Issued by National Weather Service (NWS)

                            
000
ASPQ40 PGUM 230110
RWRPQ 
WEATHER ROUNDUP FOR THE MARIANAS AND MICRONESIA
NATIONAL WEATHER SERVICE TIYAN GU
1100 AM CHST FRI AUG 23 2019

GUZ001>004-230200-
MARIANA ISLANDS-
  
CITY           SKY/WX    TMP DP  RH WIND       PRES   REMARKS
GUAM AIRPORT   PTSUNNY   90  75  62 NE15      29.85F HX 100           
ANDERSEN AFB   PTSUNNY   88  79  74 E18       29.86F HX 102           
ROTA AIRPORT   MOSUNNY   86  73  66 NE15      29.84S HX  93           
TINIAN AP      MOSUNNY   88  75  66 E18       29.84R HX  97           
SAIPAN AP      MOSUNNY   91  77  62 E18       29.84F HX 105           

$$

PMZ161-230200-
REPUBLIC OF PALAU-
  
CITY           SKY/WX    TMP DP  RH WIND       PRES   REMARKS
KOROR AP       CLOUDY    84  77  79 S5        29.89S HX  94           
KOROR WSO      NOT AVBL                                               

$$

PMZ171>174-230200-
FEDERATED STATES OF MICRONESIA-
  
CITY           SKY/WX    TMP DP  RH WIND       PRES   REMARKS
YAP AIRPORT    PTSUNNY   86  77  74 NW9       29.90S HX  97           
CHUUK AP       LGT RAIN  79  79 100 S9        29.82R                  
POHNPEI AP     LGT RAIN  82  79  89 N6        29.83S HX  93           
POHNPEI WSO    CLOUDY    86  77  74 N5        29.87F HX  97           
KOSRAE AP      CLOUDY    88  77  70 W8        29.84F HX 100           

$$

PMZ181-230200-
REPUBLIC OF THE MARSHALL ISLANDS-
  
CITY           SKY/WX    TMP DP  RH WIND       PRES   REMARKS
KWAJALEIN AP   PTSUNNY   84  75  74 SE8       29.84F HX  92           
MAJURO AP      PTSUNNY   82  77  83 E13       29.81F HX  91           
MAJURO WSO     PTSUNNY   81  75  83 E6        29.80F                  

$$